Location: El Mouella
(16.4949°N, 9.1594°W)
Time: 10:20:45
(UTC+00:00)

Cosmos 1782 Rocket - Visible Passes

Search period start: 23 September 2020 00:00
Search period end: 03 October 2020 00:00
Orbit: 608 x 631 km, 82.5° (Epoch: 23 September)

Date Brightness Start Highest point End Pass type
(mag) Time Alt. Az. Time Alt. Az. Time Alt. Az.
25 Sep 7.0 05:07:15 10° NE 05:09:18 13° E 05:11:21 10° ESE visible
25 Sep 6.3 19:01:12 10° SW 19:04:45 24° W 19:08:20 10° NNW visible
26 Sep 5.9 05:23:03 10° NNE 05:26:53 28° E 05:30:38 10° SE visible
26 Sep 7.3 19:21:06 10° W 19:22:19 11° W 19:23:33 10° WNW visible
27 Sep 4.1 05:39:58 10° N 05:44:22 63° E 05:48:43 10° SSE visible
28 Sep 3.6 05:57:29 10° NNW 06:01:49 56° W 06:06:07 10° S visible
29 Sep 6.8 04:39:09 10° NE 04:41:30 14° E 04:43:50 10° ESE visible
30 Sep 5.5 04:55:09 10° NNE 04:59:03 30° E 05:02:55 10° SE visible
30 Sep 7.4 18:54:27 10° W 18:54:31 10° W 18:54:36 10° W visible
01 Oct 3.8 05:12:09 10° N 05:16:33 69° E 05:20:55 10° S visible
02 Oct 3.7 05:29:42 10° NNW 05:33:59 50° W 05:38:13 10° SSW visible
